国家海洋和大气管理局 17号 (NOAA 17)

导读

NOAA 17是美国于2002年6月24日发射的第三代太阳同步轨道极轨气象卫星,属于NOAA系列改进型TIROS-N卫星。它搭载了甚高分辨率辐射仪、泰罗斯垂直业务探测器等设备,可获取气象图像与温度垂直探测数据,还具备资料收集、空间环境监测功能,为全球气象预报、环境监测提供关键数据支撑,服务气象业务与科研领域。

基本信息
目录编号:
27453
目录名称:
NOAA 17
国际标识:
2002-032A
轨道中心:
EARTH
卫星名称:
国家海洋和大气管理局 17号
卫星全名:
国家海洋和大气管理局 17号 (NOAA 17)
卫星状态:
在轨 (已飞行8845 天)
发射日期:
2002-06-24 UTC
国别 :
美国 (US)
星等 :
--
轨道信息
数据来源 国际轨道数据 AOE轨道数据
星历时间 2026-09-11T06:53:12+0800
6小时前
查看轨道信息
2026-09-10T11:00:00+0800
1天前
查看轨道信息
半长轴 7182.379km 7182.38km
偏心率 0.0012674 0.0012586
轨道倾角 98.876° 98.878°
近地点辐角 101.778° 104.590°
升交点赤经 220.813° 219.974°
平近点角 258.482° 323.529°
近地点 795.139km 795.203km
远地点 813.345km 813.283km
周期 100.963分钟 100.963分钟
每日圈数 14.262652 14.26265
详细信息
卫星平台:
Advanced TIROS-N
平衡模式:
三轴稳定
覆盖范围:
美洲
制造商(研发单位):
洛克希德·马丁公司
制造商所在国:
美国
使用方式:
暂无
卫星简介
NOAA卫星是美国国家海洋大气局的第三代实用气象观测卫星,第一代称为“泰罗斯”(TIROS)系列(1960-1965年),第二代称为“艾托斯”(ITOS)/NOAA系列(1970-1976年),其后运行的第三代称为TIROS--N/NOAA系列。其轨道是接近正圆的太阳同步轨道,轨道高度为870千米和833千米,轨道倾角为98.9°和98.7°,周期为101.4分钟。NOAA的应用目的是日常的气象业务,平时有两颗卫星运行。由于一颗卫星可以每天至少可以对地面同一地区进行两次观测,所以两颗卫星就可以进行四次以上的观测。该卫星已退役。
2D轨道图
3D轨道图
轨道高度分析图
轨道倾角分析图
轨道综合分析图
查看轨道综合分析图
与全量物体交会距离演化趋势
与全量物体交会风险概率演化趋势